CDT,Max TemperatureF,Mean TemperatureF,Min TemperatureF,Max Dew PointF,MeanDew PointF,Min DewpointF,Max Humidity, Mean Humidity, Min Humidity, Max Sea Level PressureIn, Mean Sea Level PressureIn, Min Sea Level PressureIn, Max VisibilityMiles, Mean VisibilityMiles, Min VisibilityMiles, Max Wind SpeedMPH, Mean Wind SpeedMPH, Max Gust SpeedMPH,PrecipitationIn, CloudCover, Events, WindDirDegrees
2013-5-1,77,68,59,61,57,55,88,67,47,30.08,30.04,29.97,10,10,10,14,5,21,0.00,1,,115
2013-5-2,75,68,62,61,57,54,83,69,53,30.12,30.07,30.03,10,10,10,15,8,18,0.00,6,,118
2013-5-3,71,56,41,59,51,37,93,80,60,30.02,29.93,29.83,10,8,1,23,10,29,1.20,6,Rain,173
2013-5-4,59,49,39,45,40,36,93,71,45,30.00,29.94,29.89,10,10,5,17,4,22,0.06,6,Rain,174
2013-5-5,57,52,46,48,45,45,93,85,67,29.92,29.88,29.85,10,9,4,13,5,16,0.17,6,Rain,310
2013-5-6,60,54,48,55,52,46,100,89,77,29.94,29.88,29.84,10,9,2,12,6,18,0.05,7,Rain,293
2013-5-7,71,61,51,57,54,50,100,80,49,30.03,29.99,29.92,10,9,1,7,3,,0.00,5,,316
2013-5-8,78,64,50,59,54,48,100,72,39,30.09,30.04,30.00,10,8,0,6,1,,0.00,0,Fog,283
2013-5-9,80,68,55,63,58,55,100,71,45,30.11,30.04,29.98,10,10,5,14,4,22,0.00,2,,190
2013-5-10,75,68,62,64,62,59,94,85,61,29.99,29.95,29.90,10,9,2,18,8,28,0.39,7,Rain-Thunderstorm,201
2013-5-11,71,63,55,61,55,50,94,76,49,30.06,29.99,29.92,10,10,4,15,4,18,0.00,4,,331
2013-5-12,66,55,44,54,38,30,94,52,28,30.22,30.16,30.06,10,10,10,15,6,22,0.00,1,,339
2013-5-13,73,56,39,54,43,36,100,64,29,30.29,30.21,30.15,10,10,10,10,2,,0.00,1,,231
2013-5-14,84,68,51,57,52,48,94,58,37,30.17,30.11,30.05,10,10,10,15,7,23,0.00,0,Thunderstorm,202
2013-5-15,84,74,64,61,53,48,83,49,30,30.15,30.07,29.99,10,10,10,14,8,23,0.00,0,,221
2013-5-16,80,71,62,63,58,50,88,69,34,30.04,29.99,29.94,10,10,6,15,3,23,0.00,2,Rain,158
2013-5-17,75,70,64,70,65,61,94,88,78,29.99,29.95,29.91,10,7,1,13,5,16,0.47,6,Rain-Thunderstorm,156
2013-5-18,80,74,68,72,70,66,100,87,69,30.01,29.98,29.94,10,6,0,12,5,17,0.00,6,Fog-Rain,171
2013-5-19,86,77,68,70,68,66,100,75,55,30.02,29.96,29.93,10,8,1,15,7,20,0.00,2,,182
2013-5-20,86,77,68,70,68,66,100,73,55,30.02,29.95,29.89,10,9,2,14,8,22,0.00,3,,174
2013-5-21,80,73,66,72,67,63,94,81,65,29.99,29.92,29.80,10,9,1,17,6,34,0.48,4,Rain-Thunderstorm,148
2013-5-22,77,70,64,64,63,61,94,79,61,29.94,29.88,29.81,10,9,2,17,8,24,0.50,4,Rain-Thunderstorm,219
2013-5-23,80,71,62,63,59,55,94,68,45,30.11,30.01,29.92,10,10,5,16,3,21,0.00,1,,320
2013-5-24,75,65,55,55,50,45,94,64,36,30.30,30.24,30.12,10,10,4,14,7,18,0.00,2,,18
2013-5-25,78,63,48,57,50,45,94,64,32,30.32,30.25,30.17,10,9,0,8,1,,0.00,0,Fog,146
2013-5-26,82,68,53,61,54,50,100,65,32,30.23,30.17,30.11,10,10,3,10,2,,0.00,0,,171
2013-5-27,86,72,59,64,61,57,94,70,45,30.14,30.08,30.01,10,10,10,16,4,22,0.00,1,,176
2013-5-28,84,73,62,64,58,54,88,59,35,30.10,30.04,30.01,10,10,10,15,8,23,0.00,0,,170
2013-5-29,86,74,62,66,63,57,88,67,45,30.10,30.04,29.98,10,10,10,17,6,22,0.00,1,,156
2013-5-30,86,78,71,68,66,64,83,68,51,30.09,30.03,29.97,10,10,10,21,10,29,0.00,2,,157
2013-5-31,84,78,71,72,68,66,83,72,62,30.04,29.99,29.92,10,10,10,16,9,23,0.00,4,Thunderstorm,165